YAMAL 300K

Last updated on Tue Dec 16 2025 00:02:49 GMT+0000 (Coordinated Universal Time)

1 38978U 12061B 25349.30873920 .00000092 00000+0 00000+0 0 9999 2 38978 0.0159 275.8796 0000386 227.6806 234.7684 1.00270994 47786
UTC large
Height (km)
Speed (km/s)
/
Latitude / Longitude
Inclination (degrees)
Orbital Period (minutes)
Azimuth
Elevation
Range (km)
Doppler Factor

Next 0 passes for location: London (51.5072 / 0.1276)

Sorry there are no passes over London.